CAPE
0 0 0 0 0 0 0 2 1 2 2 3 4 3 0 0 0 0 0 0 0 3 1 2 8 16 17 24 6 7 1 0 0 1 6 6 11 5 0 1 2 0 0
0 0 0 0 0 0 3 4 6 7 8 5 5 6 0 1 0 0 0 0 0 0 0 1 0 0 18 14 13 4 1 0 0 3 3 7 9 13 2 0 0 0 1
0 0 0 0 4 5 7 8 5 7 8 7 6 3 1 0 0 0 0 1 0 1 0 0 0 0 1 18 16 4 5 0 2 2 7 4 10 13 12 3 0 16 0
0 0 0 7 5 2 1 1 2 8 6 3 5 2 0 0 0 0 1 1 1 1 0 1 0 0 8 16 17 7 2 0 6 7 2 3 16 9 5 1 7 11 2
0 0 4 5 0 1 0 3 10 3 1 2 0 0 0 0 0 0 2 3 0 2 1 3 2 2 4 19 23 15 3 0 7 4 6 9 6 7 3 0 9 2 1
0 1 3 3 0 0 5 4 6 10 4 4 0 2 4 0 0 0 0 0 1 3 0 9 1 1 1 0 10 9 9 2 4 4 0 7 3 0 1 17 6 9 7
0 3 2 3 2 3 3 6 8 0 9 0 1 2 2 0 0 0 1 1 1 0 0 1 1 10 3 12 0 1 0 0 0 1 0 9 6 0 12 25 2 9 0
0 3 1 4 2 1 2 2 5 0 5 1 1 2 1 0 0 0 1 1 0 1 0 1 0 0 14 4 2 1 0 0 0 0 2 23 16 0 35 0 1 2 0
3 3 3 2 2 2 2 3 2 12 6 4 3 2 0 0 0 0 9 8 2 0 2 4 6 5 0 2 3 2 0 0 0 0 0 0 18 26 4 0 2 0 1
3 4 3 2 2 2 2 0 3 15 6 7 7 5 0 0 4 6 12 3 1 1 1 2 4 1 1 0 1 4 0 0 0 1 12 5 36 1 0 0 0 0 0
3 3 1 1 2 1 2 1 11 3 3 4 4 5 4 5 6 5 8 7 1 1 0 1 2 0 0 0 4 3 2 1 0 20 28 33 1 0 0 0 0 0 0
2 3 1 1 2 2 1 0 1 1 8 4 4 5 7 4 3 0 0 6 6 0 1 1 1 0 0 0 0 0 0 1 24 11 10 0 0 0 0 0 0 0 0
1 2 2 1 1 2 2 1 0 5 1 5 1 5 4 5 3 0 0 0 2 10 12 1 0 0 0 0 0 0 9 7 0 0 0 0 2 3 3 2 1 0 0
1 2 1 2 0 1 2 2 0 0 2 0 3 0 1 4 7 11 3 0 0 0 0 0 0 0 0 0 1 0 0 0 0 0 0 2 2 2 2 3 1 0 0
0 1 2 3 2 1 0 3 2 1 0 8 4 2 1 1 1 3 2 3 6 2 1 0 0 4 7 4 0 0 1 1 0 2 1 1 1 1 2 2 0 1 0
0 0 2 3 3 2 2 1 1 0 0 0 0 1 1 0 0 0 0 0 0 1 6 8 4 0 0 0 0 0 1 0 1 1 1 1 1 1 0 1 2 0 0
0 0 1 2 2 4 3 2 3 1 1 0 0 0 0 0 0 0 0 2 3 0 0 0 0 0 0 0 0 0 1 1 1 1 1 1 1 1 1 1 5 2 6
0 0 0 1 2 2 2 3 3 2 1 1 2 0 0 0 0 0 0 4 1 0 0 0 0 0 1 0 1 1 1 0 0 1 2 1 2 1 1 2 8 3 6
0 0 0 0 0 2 3 3 2 2 2 2 0 0 0 0 0 0 0 0 1 1 1 2 1 0 0 0 0 0 0 0 0 1 1 1 2 3 3 5 6 8 4
0 0 0 0 0 0 2 3 3 3 4 3 2 1 2 1 0 0 0 1 0 0 2 2 1 1 2 1 1 0 1 0 0 0 0 1 1 3 3 4 5 3 6
0 0 0 0 0 0 0 1 3 4 5 5 4 4 3 0 0 0 0 0 0 0 2 1 1 2 3 1 0 0 0 1 1 0 0 1 1 2 3 3 5 5 1
0 0 0 0 0 0 0 0 0 0 2 2 2 1 1 1 2 2 2 1 2 2 1 1 1 0 1 1 1 0 0 0 1 1 1 2 3 5 3 2 1 4 5
0 0 0 0 0 0 0 0 0 0 0 0 0 1 3 3 2 2 2 1 1 1 1 1 1 1 1 1 1 1 1 1 2 1 1 1 3 3 2 2 4 4 2
0 0 0 0 0 0 0 0 0 0 0 0 0 0 0 1 4 4 4 6 4 1 1 1 1 1 1 1 0 0 1 1 1 0 0 0 0 1 2 3 3 3 1
0 0 0 0 0 0 0 0 0 0 0 0 0 0 0 0 0 0 0 2 4 5 5 5 2 2 0 0 0 0 0 0 0 0 0 0 1 0 0 0 0 0 0
0 0 0 0 0 0 0 0 0 0 0 0 0 0 0 0 0 0 0 0 0 0 0 0 0 0 0 0 0 0 0 0 0 0 0 0 0 0 0 0 0 0 0
CIN
0 0 0 0 0 0 -1 0 0 0 0 0 0 -1 0 0 0 0 0 0 -1 0 0 0 0 0 0 -1 -1 -2 -4 0 0 -3 -7 -2 -1 -1 0 -2 -2 0 0
0 0 0 0 0 0 0 0 0 0 0 0 0 0 0 0 0 -1 0 0 0 0 0 0 0 0 0 0 0 -2 -5 0 0 -1 -2 -7 -1 0 -1 -1 0 0 -2
0 0 0 0 0 0 0 0 0 0 0 0 0 0 0 0 -1 0 0 0 0 0 0 0 0 0 0 0 -1 -1 -3 0 -2 -2 -6 -5 -2 -2 -1 -1 0 -2 0
0 0 0 -1 0 0 -1 0 0 0 0 0 0 0 0 0 0 0 0 0 0 -1 0 0 0 0 -1 0 -1 -2 -5 0 -3 -2 -6 -7 -3 -1 -1 -1 -2 0 -1
0 0 -1 -1 -1 -1 -1 0 -1 -2 0 0 0 0 0 0 0 0 0 0 0 0 -1 0 0 0 -1 0 0 -1 -4 -4 -1 -3 -4 -1 -1 -1 -1 0 -2 -4 0
0 -2 -1 -1 0 0 0 0 0 0 -1 0 0 -1 -2 0 0 0 0 0 0 -3 -4 -1 0 0 0 0 -1 -2 -2 -4 -5 -4 0 -1 -1 0 -2 -2 -5 0 -13
0 -1 -1 -1 0 0 0 0 0 -6 -1 -1 -4 -2 -1 0 0 0 0 0 -1 -1 -1 0 0 0 0 0 -1 -4 0 0 0 -14 -2 -1 -1 0 -2 -2 -29 -10 0
-1 0 -1 0 0 0 0 0 -3 0 -1 0 0 -2 0 0 0 0 0 0 -1 0 0 -1 0 0 0 -2 -10 -1 -4 0 0 0 -13 -8 -6 0 -6 -3 0 0 0
-1 0 0 0 0 0 0 0 -1 0 -1 -1 0 0 0 0 0 0 0 -1 0 0 0 0 0 0 0 -1 -1 -2 -2 0 0 0 0 -27 -57 -19 -19 0 0 0 0
0 0 0 0 0 0 0 0 -2 -1 -1 0 0 0 0 0 0 0 0 -1 0 0 0 0 0 0 0 0 0 -2 0 -3 0 -15 -21 -27 -12 -16 0 0 0 0 0
0 0 0 0 0 0 0 -1 0 -1 -2 -1 0 0 0 -1 0 0 -1 -1 0 0 0 0 0 0 0 0 0 0 -1 -1 0 -1 -1 -3 -3 0 0 0 -1 0 0
0 0 0 0 0 0 0 0 -1 -1 -1 -2 -1 0 0 0 -1 -1 -2 0 0 0 0 0 0 0 0 0 0 0 -5 -5 -3 -24 -19 -8 0 0 0 0 0 0 0
0 0 0 0 0 0 0 0 0 -1 -1 0 -2 0 0 -2 0 0 0 0 -2 0 0 -3 0 0 0 0 0 0 -8 -2 0 -3 0 0 0 0 0 0 0 0 0
0 0 0 0 0 0 0 0 0 0 0 -2 -1 0 0 -3 -1 0 -3 0 0 0 0 0 0 -3 0 0 -1 0 0 0 0 0 0 0 0 0 0 0 0 0 0
0 0 0 0 0 0 0 0 0 0 0 0 0 -1 -1 -1 -4 -1 -3 -1 -1 -1 -1 0 -3 -3 -1 -2 0 0 0 0 0 0 0 0 0 0 0 0 0 0 0
0 0 0 0 0 0 0 0 0 0 0 0 -1 -1 -1 -1 0 0 0 0 0 -5 0 0 -1 0 -1 0 0 0 0 0 0 0 0 0 0 0 0 0 0 0 0
0 0 0 0 0 0 0 0 0 0 0 0 0 0 0 0 0 0 -1 -5 -5 0 0 0 0 0 0 0 0 0 0 0 0 0 0 0 0 0 0 0 0 0 0
0 0 0 0 0 0 0 0 0 0 0 0 0 0 0 0 0 0 0 0 0 0 0 0 0 0 0 0 0 0 0 0 0 0 0 0 0 0 0 0 0 0 0
0 0 0 0 0 0 0 0 0 0 0 0 0 0 0 0 0 0 0 0 0 0 0 0 0 0 0 0 0 0 0 0 0 0 0 0 0 0 0 0 0 0 0
0 0 0 0 0 0 0 0 0 0 0 0 0 0 0 0 0 0 0 0 0 0 0 0 0 0 0 0 0 0 0 0 0 0 0 0 0 0 0 0 0 0 0
0 0 0 0 0 0 0 0 0 0 0 0 0 0 0 0 0 0 0 0 0 0 0 0 0 0 0 0 0 0 0 0 0 0 0 0 0 0 0 0 0 0 0
0 0 0 0 0 0 0 0 0 0 0 0 0 0 0 0 0 0 0 0 0 0 0 0 0 0 0 0 0 0 0 0 0 0 0 0 0 0 0 0 0 0 0
0 0 0 0 0 0 0 0 0 0 0 0 0 0 0 0 0 0 0 0 0 0 0 0 0 0 0 0 0 0 0 0 0 0 0 0 0 0 0 0 0 0 0
0 0 0 0 0 0 0 0 0 0 0 0 0 0 0 0 0 0 0 0 0 0 0 0 0 0 0 0 0 0 0 0 0 0 0 0 0 0 0 0 0 0 0
0 0 0 0 0 0 0 0 0 0 0 0 0 0 0 0 0 0 0 0 0 0 0 0 0 0 0 0 0 0 0 0 0 0 0 0 0 0 0 0 0 0 0
0 0 0 0 0 0 0 0 0 0 0 0 0 0 0 0 0 0 0 0 0 0 0 0 0 0 0 0 0 0 0 0 0 0 0 0 0 0 0 0 0 0 0
Wind_Speed
33 34 33 32 35 38 38 34 30 29 28 28 26 23 24 24 25 31 34 32 37 36 38 34 35 33 37 33 30 30 33 31 28 23 20 21 24 26 22 27 24 26 25
32 32 34 35 37 35 32 28 27 27 25 23 21 19 18 17 18 19 21 23 29 34 34 38 40 40 44 37 32 30 34 32 30 27 23 22 26 26 23 27 26 24 22
30 35 35 34 33 30 28 28 26 25 21 15 15 14 15 15 16 20 20 18 23 30 31 36 38 42 39 37 34 32 33 34 30 28 27 26 25 24 25 26 25 21 23
33 34 32 32 30 28 26 24 22 20 21 19 14 13 12 11 13 15 17 16 15 21 27 30 37 41 38 36 34 33 33 33 28 29 28 28 24 26 26 26 25 22 24
28 30 32 30 27 26 25 25 28 27 27 28 25 22 15 7 5 10 13 12 13 18 21 29 33 35 38 40 37 36 33 32 27 29 29 28 26 26 28 26 22 23 23
30 29 31 28 27 27 29 31 31 31 32 28 25 23 18 10 5 3 8 9 8 16 17 22 34 36 40 38 40 37 34 33 29 30 30 29 27 26 27 24 23 25 27
30 31 30 29 28 27 30 32 34 34 30 32 30 27 24 19 11 2 3 2 8 13 18 21 27 35 37 40 37 36 35 30 32 30 29 28 26 27 25 23 26 26 25
32 31 30 30 28 29 30 31 33 29 34 34 32 30 28 24 16 6 4 4 7 9 10 17 31 30 32 36 39 38 37 35 34 31 25 24 24 27 23 25 24 22 21
34 31 32 30 30 30 30 31 32 32 34 34 33 32 31 28 19 3 10 10 3 8 8 15 29 32 33 38 39 39 38 35 28 24 23 20 18 20 23 25 26 27 27
32 31 30 29 30 31 31 32 29 32 34 34 35 34 32 31 13 18 17 14 6 14 24 25 26 30 34 39 41 41 38 37 32 28 26 23 21 20 24 29 28 28 28
32 30 30 29 31 31 31 31 29 31 35 36 37 37 28 19 16 17 22 29 28 26 26 33 30 32 34 36 38 37 33 32 30 28 29 25 22 23 24 26 26 29 28
32 33 32 31 32 32 33 33 29 32 34 37 37 36 26 17 16 18 22 28 31 30 28 31 33 34 30 32 34 32 31 31 28 28 28 27 25 25 24 24 21 22 21
31 34 31 30 33 34 36 36 33 34 35 36 38 36 29 21 21 21 24 25 29 33 32 32 33 29 29 29 30 30 28 29 30 31 29 28 26 27 24 22 24 19 19
36 32 30 31 31 34 37 38 36 32 34 37 38 38 34 24 27 29 30 32 32 32 34 33 30 27 27 29 29 26 29 30 31 31 29 27 26 28 27 27 27 26 23
36 32 29 31 32 33 35 40 38 35 32 35 38 39 35 30 31 30 33 34 36 37 38 35 32 32 32 29 28 29 31 30 31 29 29 28 29 30 31 28 24 24 27
35 33 30 30 31 31 32 34 39 39 37 37 37 38 38 31 31 32 32 32 32 30 29 30 29 29 31 32 33 32 30 31 30 30 27 28 28 27 26 25 21 26 23
36 34 34 31 31 32 31 32 33 32 34 35 36 37 36 34 35 33 31 30 30 31 33 33 33 33 33 33 32 31 30 30 30 28 27 27 26 27 25 20 23 19 17
30 37 35 36 33 31 30 29 30 33 33 32 29 31 32 34 34 34 34 32 31 29 30 32 33 32 31 31 32 29 29 28 28 26 25 26 28 29 26 24 20 17 12
33 31 34 35 32 32 31 30 29 30 31 31 29 28 26 28 27 26 28 28 31 30 28 29 29 29 29 30 29 28 28 27 26 25 25 26 24 24 23 22 17 13 12
28 32 30 33 33 29 32 31 29 30 30 30 29 27 25 27 27 27 26 26 26 25 25 27 28 28 27 28 28 28 27 25 23 21 23 23 20 19 15 13 12 9 9
25 26 31 31 29 30 27 29 27 27 28 29 29 26 27 29 28 25 24 22 22 22 23 25 25 24 24 24 25 26 25 23 21 20 20 20 18 15 13 12 10 7 5
22 24 24 27 29 29 26 24 25 24 24 25 25 25 26 28 27 26 24 22 21 21 22 23 23 22 23 24 25 24 23 21 20 18 17 17 13 10 8 4 3 4 3
21 22 22 23 24 26 28 28 22 19 21 20 22 24 24 25 26 25 24 21 20 20 20 20 21 22 22 22 21 20 20 19 16 14 11 8 7 7 6 4 5 6 3
19 22 22 21 20 22 24 25 25 27 26 15 15 15 16 16 17 19 20 20 20 18 18 19 20 20 19 17 17 16 14 13 12 9 7 4 5 5 4 3 3 4 3
19 19 20 22 20 18 19 20 23 24 23 23 25 24 22 15 14 10 12 14 14 14 12 12 12 13 13 11 12 10 10 8 7 4 2 3 6 6 4 4 5 6 6
18 18 17 17 19 20 19 19 18 19 21 22 21 20 20 21 19 20 20 17 11 6 5 5 5 3 1 2 4 5 4 2 0 1 3 7 7 6 4 5 6 6 7
Wind_Direction
350 347 345 344 341 337 335 335 336 335 333 328 326 320 308 299 292 281 273 268 264 256 249 244 243 243 241 239 239 239 237 237 237 236 234 234 233 232 234 230 233 231 230
357 354 352 351 348 346 346 348 347 343 342 339 337 329 321 309 300 292 283 269 257 253 247 241 241 243 234 232 234 235 231 233 231 230 232 231 229 229 230 226 226 227 224
3 2 360 358 358 360 2 360 359 355 353 354 346 339 328 315 301 289 279 272 262 253 248 241 237 232 228 227 228 230 228 226 227 227 225 227 228 227 225 224 223 226 223
10 9 10 11 12 13 13 12 11 10 3 357 353 345 335 322 307 291 277 269 262 254 242 236 231 226 222 222 222 222 222 221 223 222 222 223 224 225 222 219 219 220 211
17 19 19 20 24 24 22 20 16 14 9 1 358 355 354 345 322 293 274 262 254 246 240 231 226 221 220 219 218 215 216 218 220 216 217 218 220 218 217 216 215 208 202
24 24 26 29 30 28 24 21 20 17 12 16 16 12 16 32 74 299 265 262 248 238 233 230 224 219 215 214 212 212 213 214 215 213 215 215 215 215 214 213 206 196 197
29 31 32 34 34 33 28 27 24 23 30 25 27 30 39 50 61 9 261 266 242 235 232 226 214 211 210 207 207 208 209 213 211 213 213 213 212 212 211 208 204 199 194
34 37 39 39 40 38 38 37 34 40 35 37 43 45 53 57 59 60 59 235 229 223 218 216 203 197 195 200 202 203 204 206 207 213 222 212 212 210 210 202 192 183 178
38 42 42 44 45 43 43 44 46 47 47 49 53 56 62 65 57 78 193 197 190 204 195 185 189 192 191 191 192 194 197 200 207 213 212 203 206 204 200 190 189 177 182
43 46 48 49 48 46 48 51 59 59 59 59 61 62 69 76 156 162 169 174 135 186 183 180 180 181 185 186 187 190 190 195 200 204 201 201 202 200 196 195 190 186 178
46 50 51 52 52 51 55 58 65 68 66 66 68 71 110 135 145 152 153 145 150 160 167 173 173 173 175 180 185 186 190 191 195 195 194 195 197 195 192 189 194 183 188
51 53 55 57 58 57 59 62 69 73 72 73 77 88 113 130 137 138 138 138 142 151 153 161 165 167 173 176 180 185 187 190 191 189 188 188 188 187 185 185 181 180 185
56 55 59 63 63 62 63 65 72 76 78 80 84 95 115 131 136 129 130 132 138 142 150 154 158 162 162 168 173 176 183 185 183 182 182 183 184 180 176 175 171 161 164
55 61 65 68 70 68 68 69 74 80 85 86 90 99 112 132 132 132 130 129 133 138 144 151 156 160 163 165 168 176 176 177 178 177 177 178 177 178 178 177 175 175 171
59 66 72 73 75 74 74 71 76 82 88 92 95 102 114 125 129 132 131 132 134 136 141 148 154 156 160 165 168 169 170 171 172 174 174 175 174 174 175 179 182 179 177
65 67 74 77 78 80 81 83 80 84 88 92 99 105 112 124 128 129 131 135 138 145 147 149 152 156 159 161 161 162 166 169 171 171 173 173 174 176 176 181 181 180 183
65 70 71 79 81 83 87 88 91 93 93 94 99 106 112 118 124 128 133 134 136 139 142 145 148 150 153 157 160 162 164 168 169 170 171 172 174 172 175 176 180 180 178
70 72 73 74 81 86 90 94 96 97 99 100 103 106 112 117 122 126 130 133 133 136 140 143 146 150 153 157 160 162 163 166 169 172 173 175 177 179 181 181 184 179 159
69 72 74 77 84 88 91 95 99 101 102 105 109 112 115 120 123 126 131 132 133 136 140 145 149 151 153 157 160 161 163 165 169 173 176 176 177 181 184 184 185 182 154
74 72 78 81 82 90 91 94 97 100 103 105 108 112 119 125 126 129 133 136 138 140 143 148 151 153 155 158 161 163 164 166 170 175 178 180 181 182 181 180 188 169 179
80 79 78 80 85 87 92 94 98 101 105 106 107 110 115 121 126 131 136 139 142 145 147 151 154 157 160 161 164 164 167 169 172 174 177 180 183 181 184 190 189 191 160
84 84 84 84 84 86 92 95 98 103 105 107 111 114 116 119 123 127 132 137 142 146 150 153 157 160 163 166 169 172 173 174 174 175 177 184 188 188 190 180 153 122 126
86 87 89 90 90 90 91 92 98 101 106 110 109 114 115 121 124 128 133 139 144 149 153 157 160 161 163 166 172 178 181 184 189 194 189 182 189 203 203 119 100 85 77
88 87 89 95 97 97 96 97 100 101 104 111 110 110 119 123 126 129 133 136 141 146 152 157 161 163 166 171 175 182 186 191 193 193 186 147 97 92 93 75 49 76 77
85 89 90 90 98 106 108 107 105 105 110 113 112 112 116 122 126 134 141 143 150 156 157 161 168 174 180 185 188 191 195 195 197 207 150 77 76 78 86 78 68 61 53
75 85 94 100 96 99 107 113 117 118 115 115 118 122 124 126 128 129 130 137 148 157 160 178 190 195 195 202 203 204 204 199 167 54 43 60 67 64 54 53 51 51 56